time_stamp(utc),avg(mph),gust(mph),direction(deg),12m_air_temp(f),sonic_u(cm/s),sonic_v(cm/s),sonic_w(cm/s),pressure,2m_air_temp(f),pyranometer(W/m^2)
"2018-10-29 00:02:07+00",6.4,7.4,,53,-203,-189,-3,1009.01,52.2,0
"2018-10-29 00:07:07+00",6.9,7.9,,53.1,-201,-231,5,1009.07,52.2,0
"2018-10-29 00:12:07+00",7.4,8.4,,53.2,-225,-243,8,1009.13,52.3,0
"2018-10-29 00:17:07+00",8.6,10.6,,53.2,-275,-252,-1,1009.21,52.4,0
"2018-10-29 00:22:07+00",6.5,7.5,,53.2,-182,-225,5,1009.09,52.5,0
"2018-10-29 00:27:07+00",5.9,6.9,,53.1,-138,-219,0,1008.96,52.5,0
"2018-10-29 00:32:07+00",6.5,7.5,,53,-190,-224,3,1008.97,52.4,0
"2018-10-29 00:37:07+00",6.3,7.3,,53,-164,-230,2,1008.82,52.3,0
"2018-10-29 00:42:07+00",7.4,8.4,,52.9,-237,-212,-1,1008.95,52.2,0
"2018-10-29 00:47:07+00",7.6,9.6,,52.9,-236,-242,-7,1008.9,52.2,0
"2018-10-29 00:52:07+00",7.2,8.2,,53,-170,-269,-2,1008.87,52.2,0
"2018-10-29 00:57:07+00",5.9,6.9,,53,-155,-214,4,1008.78,52.2,0
"2018-10-29 01:02:07+00",5.9,6.9,,53,-114,-222,-1,1008.87,52.2,0
"2018-10-29 01:07:07+00",5.3,6.3,,53,-145,-182,3,1008.78,52,0
"2018-10-29 01:12:07+00",4.7,4.7,,52.9,-156,-123,8,1008.79,51.9,0
"2018-10-29 01:17:07+00",4.2,5.2,,52.7,-124,-140,2,1008.68,51.7,0
"2018-10-29 01:22:07+00",4.5,4.5,,52.8,-98,-167,0,1008.61,51.3,0
"2018-10-29 01:27:07+00",5.0,5.0,,52.8,-80,-193,-5,1008.56,51.2,0
"2018-10-29 01:32:07+00",5.1,6.1,,52.8,-125,-189,0,1008.72,51.1,0
"2018-10-29 01:37:07+00",5.2,5.2,,52.8,-145,-174,4,1008.67,50.8,0
"2018-10-29 01:42:07+00",5.1,6.1,,53,-167,-176,1,1008.53,50.5,0
"2018-10-29 01:47:07+00",4.1,5.1,,53.1,-102,-154,1,1008.35,50.4,0
"2018-10-29 01:52:07+00",3.5,3.5,,53.1,-28,-142,1,1008.08,50.7,0
"2018-10-29 01:57:07+00",3.7,4.7,,53,-14,-155,-2,1008.05,50.7,0
"2018-10-29 02:02:07+00",3.7,4.7,,53.2,-58,-143,-1,1008.05,50.7,0
"2018-10-29 02:07:07+00",3.8,3.8,,53.1,-8,-157,-1,1008.01,50.6,0
"2018-10-29 02:12:07+00",4.0,4.0,,53.1,-27,-166,2,1008.03,50.4,0
"2018-10-29 02:17:07+00",3.6,3.6,,53.2,11,-153,-4,1007.88,50.5,0
"2018-10-29 02:22:07+00",3.5,3.5,,53.4,15,-145,-5,1007.78,50.7,0
"2018-10-29 02:27:07+00",3.8,3.8,,53.6,18,-155,-6,1007.87,50.9,0
"2018-10-29 02:32:07+00",4.0,4.0,,53.8,-63,-155,-1,1008.05,51,0
"2018-10-29 02:37:07+00",2.7,2.7,,53.9,-28,-108,0,1007.88,51.5,0
"2018-10-29 02:42:07+00",2.2,2.2,,54,-55,-82,0,1007.9,51.7,0
"2018-10-29 02:47:07+00",2.5,2.5,,53.9,-97,-54,-1,1008.07,51.8,0
"2018-10-29 02:52:07+00",2.2,3.2,,54,-55,-86,-2,1007.95,51.8,0
"2018-10-29 02:57:07+00",3.2,4.2,,54.3,-93,-121,2,1008.02,51.9,0
"2018-10-29 03:02:07+00",4.4,5.4,,54.5,-47,-182,-1,1007.87,52.3,0
"2018-10-29 03:07:07+00",6.0,7.0,,54.7,-122,-231,-3,1008,52.8,0
"2018-10-29 03:12:07+00",6.7,8.7,,54.8,-108,-266,-3,1007.93,53,0
"2018-10-29 03:17:07+00",7.6,8.6,,54.9,-154,-291,0,1007.92,53.2,0
"2018-10-29 03:22:07+00",8.8,11.8,,55.3,-188,-325,0,1007.82,53.6,0
"2018-10-29 03:27:07+00",9.8,10.8,,55.6,-186,-383,3,1007.77,54.2,0
"2018-10-29 03:32:07+00",12.2,17.2,,56.2,-270,-466,0,1007.9,54.7,0
"2018-10-29 03:37:07+00",13.6,15.6,,56.6,-344,-503,20,1008.06,55.3,0
"2018-10-29 03:42:07+00",14.0,17.0,,56.7,-295,-539,-2,1007.74,55.6,0
"2018-10-29 03:47:07+00",14.1,16.1,,56.7,-216,-575,2,1007.61,55.8,0
"2018-10-29 03:52:07+00",14.7,17.7,,56.4,-254,-582,-6,1007.66,55.4,0
"2018-10-29 03:57:07+00",15.0,19.0,,56.5,-219,-605,-31,1007.51,55.3,0
"2018-10-29 04:02:07+00",14.5,16.5,,56.7,-312,-552,-8,1007.45,55.5,0
"2018-10-29 04:07:07+00",12.8,14.8,,56.7,-235,-500,-8,1007.27,55.6,0
"2018-10-29 04:12:07+00",12.2,14.2,,56.7,-216,-481,-9,1007.32,55.7,0
"2018-10-29 04:17:07+00",14.1,18.1,,56.9,-212,-566,-11,1007.13,56,0
"2018-10-29 04:22:07+00",14.5,16.5,,57.3,-284,-559,-11,1007.08,56.3,0
"2018-10-29 04:27:07+00",14.9,17.9,,57.5,-374,-553,1,1006.89,56.4,0
"2018-10-29 04:32:07+00",17.0,22.0,,57.8,-480,-615,33,1006.89,56.8,0
"2018-10-29 04:37:07+00",19.5,23.5,,58,-544,-692,18,1006.88,56.9,0
"2018-10-29 04:42:07+00",18.2,21.2,,58,-503,-663,21,1006.88,57.1,0
"2018-10-29 04:47:07+00",21.0,24.0,,58,-602,-732,3,1006.87,57.1,0
"2018-10-29 04:52:07+00",22.2,26.2,,58.1,-619,-799,2,1006.93,57.2,0
"2018-10-29 04:57:07+00",19.7,22.7,,57.9,-504,-729,15,1006.86,57.1,0
"2018-10-29 05:02:07+00",19.2,21.2,,57.9,-506,-704,6,1006.79,57.1,0
"2018-10-29 05:07:07+00",18.5,21.5,,57.9,-456,-696,4,1006.61,57.1,0
"2018-10-29 05:12:07+00",19.6,22.6,,57.6,-444,-749,-1,1006.49,56.8,0
"2018-10-29 05:17:07+00",21.0,25.0,,57.7,-433,-812,-20,1006.31,56.8,0
"2018-10-29 05:22:07+00",17.6,21.6,,57.4,-315,-700,0,1006.13,56.5,0
"2018-10-29 05:27:07+00",16.8,22.8,,57.4,-315,-653,-9,1006.06,56.5,0
"2018-10-29 05:32:07+00",17.6,20.6,,57.3,-275,-713,-13,1005.97,56.4,0
"2018-10-29 05:37:07+00",19.1,22.1,,57.3,-280,-781,-5,1005.94,56.4,0
"2018-10-29 05:42:07+00",19.1,22.1,,57.4,-335,-758,0,1005.93,56.5,0
"2018-10-29 05:47:07+00",20.7,24.7,,57.6,-361,-828,-10,1005.8,56.7,0
"2018-10-29 05:52:07+00",19.0,24.0,,57.6,-326,-758,-12,1005.72,56.7,0
"2018-10-29 05:57:07+00",20.6,24.6,,57.7,-380,-807,-11,1005.71,56.8,0
"2018-10-29 06:02:07+00",20.8,23.8,,57.8,-340,-836,-11,1005.63,57,0
"2018-10-29 06:07:07+00",19.3,22.3,,58,-338,-765,-9,1005.54,57.3,0
"2018-10-29 06:12:07+00",15.9,20.9,,58.1,-255,-647,-4,1005.54,57.4,0
"2018-10-29 06:17:07+00",22.5,29.5,,58.4,-375,-898,-31,1005.53,57.6,0
"2018-10-29 06:22:07+00",16.7,19.7,,58.2,-305,-659,2,1005.65,57.5,0
"2018-10-29 06:27:07+00",20.0,25.0,,58.5,-483,-783,-4,1005.55,57.7,0
"2018-10-29 06:32:07+00",20.4,25.4,,58.7,-505,-762,1,1005.57,57.9,0
"2018-10-29 06:37:07+00",20.5,26.5,,58.7,-327,-827,-18,1005.56,58,0
"2018-10-29 06:42:07+00",21.5,26.5,,58.8,-585,-774,0,1005.51,58.1,0
"2018-10-29 06:47:07+00",24.1,27.1,,59,-732,-808,26,1005.57,58.1,0
"2018-10-29 06:52:07+00",23.6,29.6,,58.9,-717,-797,39,1005.49,58.2,0
"2018-10-29 06:57:07+00",23.2,28.2,,58.8,-704,-771,23,1005.53,58.1,0
"2018-10-29 07:02:07+00",24.8,35.8,,58.8,-717,-861,8,1005.41,58.1,0
"2018-10-29 07:07:07+00",27.0,31.0,,58.7,-841,-879,1,1005.37,58.1,0
"2018-10-29 07:12:07+00",25.4,29.4,,58.4,-757,-862,32,1005.29,57.8,0
"2018-10-29 07:17:07+00",23.6,29.6,,58.3,-750,-724,12,1005.26,57.6,0
"2018-10-29 07:22:07+00",27.0,31.0,,58.1,-875,-770,15,1005.35,57.4,0
"2018-10-29 07:27:07+00",22.5,29.5,,57.7,-723,-698,18,1005.22,57.1,0
"2018-10-29 07:32:07+00",24.1,27.1,,57.5,-785,-701,14,1005.13,56.9,0
"2018-10-29 07:37:07+00",26.1,30.1,,57.2,-863,-716,9,1005.17,56.6,0
"2018-10-29 07:42:07+00",23.5,26.5,,57,-760,-705,12,1005.13,56.3,0
"2018-10-29 07:47:07+00",21.5,26.5,,56.7,-699,-620,8,1005.07,56.1,0
"2018-10-29 07:52:07+00",20.5,25.5,,56.4,-700,-561,22,1005,55.9,0
"2018-10-29 07:57:07+00",19.9,23.9,,56.3,-669,-544,22,1005,55.8,0
"2018-10-29 08:02:07+00",20.6,23.6,,56.2,-707,-551,24,1005.08,55.7,0
"2018-10-29 08:07:07+00",19.7,23.7,,56,-698,-502,29,1004.94,55.6,0
"2018-10-29 08:12:07+00",17.7,20.7,,55.9,-637,-456,36,1005.01,55.4,0
"2018-10-29 08:17:07+00",20.6,24.6,,55.9,-751,-512,29,1005.07,55.4,0
"2018-10-29 08:22:07+00",22.7,25.7,,55.9,-817,-562,20,1004.97,55.3,0
"2018-10-29 08:27:07+00",16.4,19.4,,55.6,-682,-309,47,1005.06,55.1,0
"2018-10-29 08:32:07+00",19.5,23.5,,55.6,-836,-385,41,1005.05,55,0
"2018-10-29 08:37:07+00",16.5,19.5,,55.4,-693,-221,50,1005.05,54.9,0
"2018-10-29 08:42:07+00",18.9,21.9,,55.5,-832,-63,50,1004.9,54.8,0
"2018-10-29 08:47:07+00",24.5,28.5,,55.5,-1087,-1,33,1004.89,54.8,0
"2018-10-29 08:52:07+00",21.7,24.7,,55.4,-950,-33,42,1004.91,54.7,0
"2018-10-29 08:57:07+00",22.3,25.3,,55.3,-973,-27,83,1005.09,54.7,0
"2018-10-29 09:02:07+00",22.7,27.7,,55.3,-1011,-33,41,1005.16,54.7,0
"2018-10-29 09:07:07+00",20.3,23.3,,55.2,-881,-75,70,1005.13,54.6,0
"2018-10-29 09:12:07+00",22.0,26.0,,55.1,-975,-20,48,1005.14,54.6,0
"2018-10-29 09:17:07+00",22.8,25.8,,55.1,-992,-45,10,1005.25,54.5,0
"2018-10-29 09:22:07+00",17.8,21.8,,54.9,-764,-81,41,1005.37,54.4,0
"2018-10-29 09:27:07+00",15.7,18.7,,54.7,-686,-54,48,1005.35,54.2,0
"2018-10-29 09:32:07+00",17.9,20.9,,54.7,-772,-67,57,1005.56,54.1,0
"2018-10-29 09:37:07+00",15.0,20.0,,54.6,-641,-61,52,1005.51,54.1,0
"2018-10-29 09:42:07+00",16.6,18.6,,54.5,-709,-99,41,1005.55,54,0
"2018-10-29 09:47:07+00",16.4,20.4,,54.4,-690,-129,42,1005.69,53.8,0
"2018-10-29 09:52:07+00",14.6,17.6,,54.2,-619,-138,78,1005.74,53.7,0
"2018-10-29 09:57:07+00",16.9,20.9,,54.1,-713,-167,34,1005.86,53.5,0
"2018-10-29 10:02:07+00",16.3,19.3,,54,-684,-198,17,1005.92,53.3,0
"2018-10-29 10:07:07+00",17.0,19.0,,53.9,-714,-154,29,1005.94,53.2,0
"2018-10-29 10:12:07+00",17.8,22.8,,53.9,-751,-148,14,1005.98,53.1,0
"2018-10-29 10:17:07+00",17.1,18.1,,53.7,-729,-120,29,1006.08,52.9,0
"2018-10-29 10:22:07+00",16.3,20.3,,53.6,-694,-126,45,1006.12,52.8,0
"2018-10-29 10:27:07+00",15.0,17.0,,53.5,-637,-87,32,1006.11,52.7,0
"2018-10-29 10:32:07+00",18.1,21.1,,53.3,-790,-81,30,1006.1,52.6,0
"2018-10-29 10:37:07+00",18.1,21.1,,53.3,-775,-121,45,1006.15,52.5,0
"2018-10-29 10:42:07+00",18.8,20.8,,53.1,-806,-95,14,1006.13,52.4,0
"2018-10-29 10:47:07+00",16.1,19.1,,52.9,-680,-111,43,1006.3,52.2,0
"2018-10-29 10:52:07+00",17.7,18.7,,52.7,-751,-121,22,1006.43,52,0
"2018-10-29 10:57:07+00",15.7,19.7,,52.5,-669,-83,43,1006.4,51.9,0
"2018-10-29 11:02:07+00",19.0,24.0,,52.6,-817,-174,28,1006.43,51.8,0
"2018-10-29 11:07:07+00",16.7,19.7,,52.6,-713,-112,16,1006.42,51.7,0
"2018-10-29 11:12:07+00",16.1,18.1,,52.6,-680,-132,28,1006.44,51.7,0
"2018-10-29 11:17:07+00",15.3,18.3,,52.5,-653,-201,22,1006.42,51.6,0
"2018-10-29 11:22:07+00",15.0,18.0,,52.2,-633,-189,22,1006.43,51.5,0
"2018-10-29 11:27:07+00",16.3,21.3,,52.2,-694,-221,23,1006.44,51.4,0
"2018-10-29 11:32:07+00",20.0,25.0,,52.3,-835,-237,34,1006.47,51.4,0
"2018-10-29 11:37:07+00",17.6,20.6,,52.1,-732,-164,25,1006.49,51.4,0
"2018-10-29 11:42:07+00",18.8,21.8,,52.1,-794,-220,43,1006.6,51.3,0
"2018-10-29 11:47:07+00",18.8,20.8,,52,-777,-200,14,1006.68,51.3,0
"2018-10-29 11:52:07+00",16.6,20.6,,51.9,-694,-168,24,1006.75,51.3,0
"2018-10-29 11:57:07+00",15.2,17.2,,51.9,-634,-130,24,1006.8,51.3,0.1
"2018-10-29 12:02:07+00",16.9,18.9,,51.9,-712,-133,11,1006.8,51.3,1.6
"2018-10-29 12:07:07+00",18.5,20.5,,52,-781,-122,38,1006.88,51.5,33.8
"2018-10-29 12:12:07+00",19.0,21.0,,52.1,-814,-85,36,1006.93,51.9,41.7
"2018-10-29 12:17:07+00",18.1,23.1,,52.2,-782,-67,39,1007,52.3,51.5
"2018-10-29 12:22:07+00",19.0,22.0,,52.4,-835,-39,29,1007.08,52.7,60.7
"2018-10-29 12:27:07+00",19.8,23.8,,52.5,-861,-78,34,1007.15,53,69.1
"2018-10-29 12:32:07+00",17.9,19.9,,52.6,-781,-52,57,1007.31,53.3,78.5
"2018-10-29 12:37:07+00",18.3,22.3,,52.9,-784,-120,41,1007.36,53.6,87.7
"2018-10-29 12:42:07+00",17.0,20.0,,53.1,-737,-3,90,1007.45,53.9,97.5
"2018-10-29 12:47:07+00",19.8,23.8,,53.2,-864,-37,53,1007.5,54.1,107.7
"2018-10-29 12:52:07+00",21.8,24.8,,53.4,-961,-26,26,1007.55,54.2,118.5
"2018-10-29 12:57:07+00",18.7,22.7,,53.6,-813,-13,57,1007.59,54.6,127.5
"2018-10-29 13:02:07+00",18.3,25.3,,53.9,-815,-1,51,1007.75,54.9,137
"2018-10-29 13:07:07+00",21.6,23.6,,54.2,-951,36,35,1007.83,55.1,145.3
"2018-10-29 13:12:07+00",18.4,22.4,,54.4,-816,64,79,1008.07,55.4,155
"2018-10-29 13:17:07+00",22.2,26.2,,54.6,-983,123,62,1008.04,55.6,162.2
"2018-10-29 13:22:07+00",21.9,25.9,,54.7,-971,71,58,1007.99,55.7,170.9
"2018-10-29 13:27:07+00",22.7,27.7,,55,-1017,102,57,1008.19,55.9,180
"2018-10-29 13:32:07+00",23.8,27.8,,55.3,-1056,114,78,1008.2,56,188.9
"2018-10-29 13:37:07+00",26.0,30.0,,55.4,-1138,136,70,1008.32,56.2,196.8
"2018-10-29 13:42:07+00",21.2,25.2,,55.6,-946,50,69,1008.3,56.4,208.6
"2018-10-29 13:47:07+00",27.3,31.3,,55.9,-1214,7,63,1008.25,56.8,237.5
"2018-10-29 13:52:07+00",22.4,28.4,,56.3,-982,-88,38,1008.37,57.3,297
"2018-10-29 13:57:07+00",24.5,28.5,,56,-1086,-51,42,1008.46,57.5,225
"2018-10-29 14:02:07+00",24.1,28.1,,55.6,-1062,0,51,1008.52,57.2,234.6
"2018-10-29 14:07:07+00",23.9,26.9,,55.6,-1015,-184,47,1008.63,57,224.8
"2018-10-29 14:12:07+00",23.2,26.2,,55.4,-1009,-94,43,1008.73,56.9,238.6
"2018-10-29 14:17:07+00",21.9,25.9,,55.4,-932,-175,20,1008.65,56.9,244
"2018-10-29 14:22:07+00",17.8,21.8,,55.8,-775,-144,75,1008.65,57.2,256.4
"2018-10-29 14:27:07+00",22.4,26.4,,55.6,-984,-70,33,1008.65,57.2,238.5
"2018-10-29 14:32:07+00",21.5,24.5,,55.5,-942,-18,66,1008.69,57,83.7
"2018-10-29 14:37:07+00",18.0,24.0,,55.6,-791,29,74,1008.81,56.6,93.4
"2018-10-29 14:42:07+00",20.1,24.1,,55.6,-886,58,44,1008.84,56.4,71.9
"2018-10-29 14:47:07+00",17.6,19.6,,55.5,-791,94,67,1008.88,56.1,58.5
"2018-10-29 14:52:07+00",21.5,26.5,,55.5,-938,252,62,1008.84,55.8,53
"2018-10-29 14:57:07+00",23.6,26.6,,55.5,-1034,235,57,1008.8,55.7,63.4
"2018-10-29 15:02:07+00",27.1,30.1,,55.6,-1195,245,71,1008.82,55.8,164.2
"2018-10-29 15:07:07+00",22.1,25.1,,55.5,-975,188,54,1008.88,55.8,55.4
"2018-10-29 15:12:07+00",20.5,22.5,,55.4,-897,204,48,1008.97,55.6,58.5
"2018-10-29 15:17:07+00",23.4,28.4,,55.4,-1028,226,71,1009.05,55.5,84.2
"2018-10-29 15:22:07+00",21.1,23.1,,55.3,-913,288,59,1009.03,55.4,36.5
"2018-10-29 15:27:07+00",21.7,23.7,,55.2,-917,343,49,1009.03,55.4,79.4
"2018-10-29 15:32:07+00",20.4,23.4,,55.1,-837,362,66,1009.09,55.4,49.3
"2018-10-29 15:37:07+00",23.8,27.8,,55.1,-967,452,50,1009,55.3,72.7
"2018-10-29 15:42:07+00",20.1,24.1,,55.1,-826,371,45,1009.04,55.4,87.8
"2018-10-29 15:47:07+00",18.3,21.3,,55,-767,281,43,1009.05,55.4,107.4
"2018-10-29 15:52:07+00",16.9,18.9,,55.2,-711,284,39,1009.07,55.6,92.3
"2018-10-29 15:57:07+00",16.6,19.6,,55.3,-712,235,79,1009.13,55.7,82.9
"2018-10-29 16:02:07+00",21.0,25.0,,55.2,-874,370,72,1009.13,55.7,105.2
"2018-10-29 16:07:07+00",21.3,24.3,,55.1,-881,405,51,1009.1,55.7,228.1
"2018-10-29 16:12:07+00",25.3,29.3,,55.2,-1069,412,58,1009.09,56.1,365.3
"2018-10-29 16:17:07+00",23.3,30.3,,55.3,-941,478,56,1009.15,56.2,398.6
"2018-10-29 16:22:07+00",27.6,30.6,,55.5,-1132,497,59,1009.04,56.5,270.3
"2018-10-29 16:27:07+00",23.5,25.5,,55.3,-967,413,48,1009.05,56.4,188.1
"2018-10-29 16:32:07+00",23.5,25.5,,55.3,-958,431,51,1009.16,56.2,153.6
"2018-10-29 16:37:07+00",21.5,23.5,,55.2,-862,455,62,1009.27,56,116.7
"2018-10-29 16:42:07+00",19.8,21.8,,55.1,-831,325,69,1009.3,55.8,104.6
"2018-10-29 16:47:07+00",23.5,27.5,,55.1,-1005,337,79,1009.26,55.8,205.5
"2018-10-29 16:52:07+00",22.7,24.7,,55.2,-949,360,63,1009.16,56,293.9
"2018-10-29 16:57:07+00",24.9,28.9,,55.4,-1008,482,72,1009.21,56.5,262.4
"2018-10-29 17:02:07+00",28.0,31.0,,55.3,-1151,540,70,1009.12,56.4,335.4
"2018-10-29 17:07:07+00",24.0,27.0,,55.4,-947,536,82,1009.04,56.6,376.2
"2018-10-29 17:12:07+00",21.5,26.5,,55.5,-847,465,71,1009.06,56.7,276.4
"2018-10-29 17:17:07+00",25.6,30.6,,55.6,-1050,494,87,1009.11,56.9,395.3
"2018-10-29 17:22:07+00",20.5,26.5,,55.7,-826,383,87,1009.13,57.2,151.3
"2018-10-29 17:27:07+00",23.2,25.2,,55.7,-967,419,58,1009.08,57.2,258.1
"2018-10-29 17:32:07+00",25.7,29.7,,56,-1102,406,70,1009.1,57.5,308.5
"2018-10-29 17:37:07+00",20.4,25.4,,56.4,-849,398,101,1009.22,57.7,334.3
"2018-10-29 17:42:07+00",22.5,25.5,,56.2,-923,426,53,1009.22,57.3,240
"2018-10-29 17:47:07+00",20.1,23.1,,56.3,-834,361,47,1009.33,57.4,208.7
"2018-10-29 17:52:07+00",19.5,22.5,,56.2,-734,466,69,1009.51,57,70.8
"2018-10-29 17:57:07+00",22.4,25.4,,56.3,-945,389,51,1009.61,56.9,100.2
"2018-10-29 18:02:07+00",22.4,26.4,,56.4,-942,390,48,1009.75,56.9,91.1
"2018-10-29 18:07:07+00",19.1,22.1,,56.3,-768,390,52,1009.76,56.8,71.9
"2018-10-29 18:12:07+00",21.0,26.0,,56.4,-773,566,63,1009.92,56.7,66.8
"2018-10-29 18:17:07+00",23.0,27.0,,56.1,-930,450,54,1009.98,56.5,32.4
"2018-10-29 18:22:07+00",20.9,22.9,,56,-832,453,52,1009.95,56.2,39.6
"2018-10-29 18:27:07+00",16.9,20.9,,56.1,-664,400,68,1009.93,56.2,55.9
"2018-10-29 18:32:07+00",19.5,22.5,,56.1,-757,426,40,1010,56.2,55.1
"2018-10-29 18:37:07+00",18.2,20.2,,56.1,-712,355,50,1010.03,56.2,53.9
"2018-10-29 18:42:07+00",18.0,20.0,,56.3,-709,410,46,1010.06,56.4,56.7
"2018-10-29 18:47:07+00",15.4,19.4,,56.3,-621,337,43,1010.09,56.4,40.1
"2018-10-29 18:52:07+00",14.6,18.6,,56.3,-591,319,54,1010.16,56.5,67.6
"2018-10-29 18:57:07+00",23.5,26.5,,56.5,-945,481,46,1010.17,56.5,58.7
"2018-10-29 19:02:07+00",22.0,27.0,,56.5,-888,457,42,1010.18,56.5,60.1
"2018-10-29 19:07:07+00",22.6,24.6,,56.5,-763,667,54,1010.22,56.6,61.9
"2018-10-29 19:12:07+00",19.5,22.5,,56.5,-719,511,44,1010.27,56.6,59.8
"2018-10-29 19:17:07+00",19.6,22.6,,56.5,-736,500,34,1010.23,56.7,79
"2018-10-29 19:22:07+00",17.6,20.6,,56.4,-675,404,54,1010.44,56.7,85.9
"2018-10-29 19:27:07+00",18.2,21.2,,56.5,-695,435,31,1010.39,56.7,54.9
"2018-10-29 19:32:07+00",20.6,24.6,,56.4,-731,569,61,1010.42,56.5,52.5
"2018-10-29 19:37:07+00",19.9,21.9,,56.4,-695,547,30,1010.51,56.4,82.4
"2018-10-29 19:42:07+00",15.1,17.1,,56.6,-593,336,50,1010.5,56.9,110.8
"2018-10-29 19:47:07+00",15.3,18.3,,56.6,-596,358,46,1010.47,57.2,76.1
"2018-10-29 19:52:07+00",20.0,23.0,,56.7,-778,429,39,1010.44,57.1,69.8
"2018-10-29 19:57:07+00",16.8,20.8,,56.7,-696,351,46,1010.49,57.1,142.7
"2018-10-29 20:02:07+00",18.8,21.8,,57,-682,472,47,1010.49,57.7,192.6
"2018-10-29 20:07:07+00",16.9,19.9,,57.2,-682,331,36,1010.48,58.2,172.4
"2018-10-29 20:12:07+00",17.4,20.4,,56.9,-679,404,46,1010.55,58,42.2
"2018-10-29 20:17:07+00",15.7,20.7,,56.8,-643,284,66,1010.65,57.7,26.6
"2018-10-29 20:22:07+00",17.0,19.0,,56.7,-682,313,34,1010.71,57.4,83.5
"2018-10-29 20:27:07+00",15.7,18.7,,56.5,-637,304,46,1010.78,57.2,41.1
"2018-10-29 20:32:07+00",15.5,18.5,,56.5,-606,336,24,1010.78,57.2,111.8
"2018-10-29 20:37:07+00",16.1,19.1,,56.6,-622,365,34,1010.82,57.3,126.7
"2018-10-29 20:42:07+00",12.8,14.8,,56.6,-501,283,29,1010.97,57.5,99.6
"2018-10-29 20:47:07+00",10.5,12.5,,56.6,-429,201,42,1011,57.7,86.3
"2018-10-29 20:52:07+00",11.8,13.8,,56.6,-492,224,29,1010.99,57.8,72.4
"2018-10-29 20:57:07+00",17.2,19.2,,56.5,-730,274,53,1011.02,57.6,51.8
"2018-10-29 21:02:07+00",18.9,22.9,,56.5,-783,351,49,1011.07,57.2,62.4
"2018-10-29 21:07:07+00",19.8,21.8,,56.3,-855,299,57,1011.14,56.9,4.3
"2018-10-29 21:12:07+00",16.1,18.1,,56,-690,279,54,1011.24,56.5,5.2
"2018-10-29 21:17:07+00",16.2,17.2,,55.9,-698,220,31,1011.38,56.2,14.4
"2018-10-29 21:22:07+00",12.0,15.0,,55.6,-529,34,31,1011.49,56,0
"2018-10-29 21:27:07+00",13.6,16.6,,55.5,-592,19,30,1011.49,55.7,0
"2018-10-29 21:32:07+00",13.3,15.3,,55.5,-593,79,53,1011.62,55.5,8.2
"2018-10-29 21:37:07+00",15.7,18.7,,55.5,-695,100,51,1011.61,55.5,0.1
"2018-10-29 21:42:07+00",12.1,13.1,,55.4,-528,54,28,1011.74,55.5,0
"2018-10-29 21:47:07+00",8.0,9.0,,55,-333,-65,14,1011.81,55.4,0
"2018-10-29 21:52:07+00",9.9,10.9,,54.4,-424,-43,15,1011.82,54.9,0
"2018-10-29 21:57:07+00",9.4,10.4,,54.1,-406,-22,33,1011.89,54.4,0
"2018-10-29 22:02:07+00",9.9,11.9,,54.1,-440,19,30,1011.99,54,0
"2018-10-29 22:07:07+00",11.6,13.6,,54.4,-517,74,23,1011.99,53.8,0
"2018-10-29 22:12:07+00",11.3,13.3,,54.4,-496,102,36,1012.04,53.7,0
"2018-10-29 22:17:07+00",10.7,11.7,,54.5,-464,111,31,1012.03,53.8,0
"2018-10-29 22:22:07+00",10.9,13.9,,54.6,-470,142,26,1012.1,53.8,0
"2018-10-29 22:27:07+00",12.8,14.8,,54.7,-535,179,27,1012.18,53.9,0
"2018-10-29 22:32:07+00",13.8,16.8,,54.6,-589,202,25,1012.21,53.9,0
"2018-10-29 22:37:07+00",19.6,23.6,,54.7,-846,175,55,1012.22,54,0
"2018-10-29 22:42:07+00",17.4,20.4,,54.7,-708,306,58,1012.34,54,0
"2018-10-29 22:47:07+00",17.4,20.4,,54.5,-693,371,51,1012.48,54,0
"2018-10-29 22:52:07+00",19.6,22.6,,54.4,-810,363,36,1012.52,53.8,0
"2018-10-29 22:57:07+00",16.6,19.6,,54.2,-676,299,26,1012.57,53.7,0
"2018-10-29 23:02:07+00",15.8,17.8,,54,-627,286,33,1012.73,53.6,0
"2018-10-29 23:07:07+00",15.4,17.4,,53.9,-626,283,32,1012.7,53.4,0
"2018-10-29 23:12:07+00",12.8,14.8,,53.7,-523,242,22,1012.76,53.3,0
"2018-10-29 23:17:07+00",13.7,15.7,,53.7,-556,244,34,1012.84,53.2,0
"2018-10-29 23:22:07+00",13.5,15.5,,53.6,-560,221,28,1012.87,53.1,0
"2018-10-29 23:27:07+00",12.1,15.1,,53.5,-511,194,22,1013.01,53.1,0
"2018-10-29 23:32:07+00",10.9,11.9,,53.4,-455,157,35,1012.97,53,0
"2018-10-29 23:37:07+00",10.4,12.4,,53.3,-451,163,40,1013.17,52.9,0
"2018-10-29 23:42:07+00",8.9,10.9,,53.3,-371,108,47,1013.19,52.8,0
"2018-10-29 23:47:07+00",9.4,10.4,,53.2,-402,51,27,1013.31,52.8,0
"2018-10-29 23:52:07+00",9.7,10.7,,52.9,-434,33,24,1013.36,52.7,0
"2018-10-29 23:57:07+00",9.8,10.8,,52.9,-436,24,25,1013.42,52.5,0
